Weather History for EGPK - October, 2012

Change the Weather History Date:

Tuesday, October 2, 2012

  Actual Average Record
Temperature  
Mean Temperature 52 °F -  
Max Temperature 55 °F 54 °F 66 °F (2002)
Min Temperature 48 °F 43 °F 35 °F (1996)
Degree Days  
Heating Degree Days 14    
Growing Degree Days 2 (Base 50)    
Moisture  
Dew Point 46 °F    
Average Humidity 82    
Maximum Humidity 93    
Minimum Humidity 72    
Precipitation  
Precipitation 0.00 in - - ()
Sea Level Pressure  
Sea Level Pressure 29.45 in    
Wind  
Wind Speed 10 mph ()    
Max Wind Speed 16 mph    
Max Gust Speed 24 mph    
Visibility 6.1 miles    
Events Rain    
Averages and records for this station are not official NWS values.
T = Trace of Precipitation, MM = Missing Value Source: Averaged Metar Reports

Daily Weather History Graph

Daily Weather History Graph

Search for Another Location

Airport or City:

Trip Planner

Search our weather history database for the weather conditions in past years. The results will help you decide how hot, cold, wet, or windy it might be!

Date:

Astronomy

Oct. 02, 2012 Rise Set
Actual Time 7:23 AM BST 6:50 PM BST
Civil Twilight 6:47 AM BST 7:26 PM BST
Nautical Twilight 6:04 AM BST 8:09 PM BST
Astronomical Twilight 5:20 AM BST 8:53 PM BST
Moon 7:18 PM BST (10/2) 10:10 AM BST (10/2)
Length of Visible Light 12h 39m
Length of Day
11h 26m
Waning Gibbous, 95% of the Moon is Illuminated
Oct 2
Waning Gibbous
Oct 8
Last Quarter
Oct 15
New
Oct 22
First Quarter
Oct 29
Full

Hourly Weather History & Observations

Time (BST) Temp. Dew Point Humidity Pressure Visibility Wind Dir Wind Speed Gust Speed Precip Events Conditions
12:20 AM 51.8 °F 44.6 °F 76% 29.59 in 6.2 mi SSW 13.8 mph - N/A   Scattered Clouds
12:50 AM 51.8 °F 44.6 °F 76% 29.59 in 6.2 mi SSW 12.7 mph - N/A   Mostly Cloudy
1:50 AM 51.8 °F 46.4 °F 82% 29.59 in 6.2 mi SSW 12.7 mph 24.2 mph N/A   Mostly Cloudy
3:50 AM 48.2 °F 44.6 °F 87% 29.56 in 6.2 mi South 11.5 mph - N/A   Mostly Cloudy
4:50 AM 48.2 °F 44.6 °F 87% 29.56 in 6.2 mi South 11.5 mph - N/A   Mostly Cloudy
5:50 AM 50.0 °F 46.4 °F 87% 29.53 in 6.2 mi South 11.5 mph - N/A   Mostly Cloudy
6:20 AM 50.0 °F 44.6 °F 82% 29.53 in 6.2 mi SSW 13.8 mph - N/A   Mostly Cloudy
6:50 AM 50.0 °F 44.6 °F 82% 29.53 in 6.2 mi SSW 11.5 mph - N/A   Mostly Cloudy
7:20 AM 50.0 °F 46.4 °F 87% 29.53 in 6.2 mi SSW 11.5 mph - N/A   Mostly Cloudy
7:50 AM 50.0 °F 46.4 °F 87% 29.50 in 6.2 mi South 11.5 mph - N/A   Mostly Cloudy
8:20 AM 50.0 °F 46.4 °F 87% 29.50 in 6.2 mi South 11.5 mph - N/A Rain Light Rain Showers
8:50 AM 50.0 °F 46.4 °F 87% 29.50 in 6.2 mi South 11.5 mph - N/A   Mostly Cloudy
9:20 AM 51.8 °F 46.4 °F 82% 29.50 in 6.2 mi SSW 12.7 mph - N/A   Mostly Cloudy
9:50 AM 51.8 °F 46.4 °F 82% 29.50 in 6.2 mi South 11.5 mph - N/A   Scattered Clouds
10:20 AM 53.6 °F 46.4 °F 77% 29.50 in 6.2 mi SSW 13.8 mph - N/A   Scattered Clouds
10:50 AM 53.6 °F 46.4 °F 77% 29.50 in 6.2 mi SSW 10.4 mph - N/A   Mostly Cloudy
11:20 AM 53.6 °F 46.4 °F 77% 29.47 in 6.2 mi SSW 12.7 mph - N/A Rain Light Rain Showers
11:50 AM 53.6 °F 48.2 °F 82% 29.47 in 6.2 mi SSW 12.7 mph - N/A   Mostly Cloudy
12:20 PM 53.6 °F 48.2 °F 82% 29.47 in 6.2 mi SSW 11.5 mph - N/A Rain Light Rain Showers
12:50 PM 51.8 °F 48.2 °F 88% 29.47 in 6.2 mi SSW 13.8 mph - N/A Rain Light Rain Showers
1:20 PM 53.6 °F 48.2 °F 82% 29.47 in 6.2 mi SW 16.1 mph - N/A Rain Light Rain Showers
1:50 PM 53.6 °F 48.2 °F 82% 29.47 in 6.2 mi SW 15.0 mph - N/A   Mostly Cloudy
2:20 PM 55.4 °F 48.2 °F 77% 29.44 in 6.2 mi SW 15.0 mph - N/A   Mostly Cloudy
2:50 PM 55.4 °F 48.2 °F 77% 29.44 in 6.2 mi SW 13.8 mph - N/A   Mostly Cloudy
3:20 PM 55.4 °F 46.4 °F 72% 29.44 in 6.2 mi SW 13.8 mph - N/A   Scattered Clouds
3:50 PM 55.4 °F 46.4 °F 72% 29.44 in 6.2 mi SW 12.7 mph - N/A   Scattered Clouds
4:20 PM 55.4 °F 46.4 °F 72% 29.44 in 6.2 mi SSW 9.2 mph - N/A   Scattered Clouds
4:50 PM 53.6 °F 44.6 °F 72% 29.42 in 6.2 mi SSW 6.9 mph - N/A   Scattered Clouds
5:20 PM 53.6 °F 46.4 °F 77% 29.42 in 6.2 mi South 3.5 mph - N/A   Scattered Clouds
5:50 PM 53.6 °F 46.4 °F 77% 29.39 in 6.2 mi SSE 5.8 mph - N/A   Scattered Clouds
6:20 PM 53.6 °F 46.4 °F 77% 29.36 in 6.2 mi SSE 4.6 mph - N/A   Scattered Clouds
6:50 PM 51.8 °F 46.4 °F 82% 29.36 in 6.2 mi SSE 4.6 mph - N/A   Scattered Clouds
7:20 PM 51.8 °F 46.4 °F 82% 29.36 in 6.2 mi SE 5.8 mph - N/A   Scattered Clouds
7:50 PM 51.8 °F 46.4 °F 82% 29.33 in 6.2 mi SE 8.1 mph - N/A   Scattered Clouds
8:20 PM 51.8 °F 46.4 °F 82% 29.33 in 6.2 mi SSE 5.8 mph - N/A Rain Rain
8:50 PM 51.8 °F 46.4 °F 82% 29.33 in 4.3 mi SSE 8.1 mph - N/A Rain Rain
9:20 PM 50.0 °F 46.4 °F 87% 29.30 in 4.3 mi SSW 3.5 mph - N/A Rain Rain
9:50 PM 48.2 °F 46.4 °F 93% 29.33 in 4.3 mi SW 6.9 mph - N/A Rain Rain
10:20 PM 48.2 °F 46.4 °F 93% 29.33 in 6.2 mi SW 5.8 mph - N/A   Mostly Cloudy
10:50 PM 48.2 °F 46.4 °F 93% 29.33 in 6.2 mi South 6.9 mph - N/A Rain Rain
11:20 PM 48.2 °F 44.6 °F 87% 29.33 in 6.2 mi WSW 12.7 mph - N/A Rain Light Rain
11:50 PM 48.2 °F 44.6 °F 87% 29.33 in 6.2 mi SW 15.0 mph - N/A Rain Light Rain